Regional Weather Roundup
Issued by NWS Kansas City/Pleasant Hill, MO

Home | Current Version | Previous Version | Text Only | Print | Product List | Glossary On
Versions: 1 2 3 4 5 6 7 8 9 10 11 12 13 14 15 16 17 18 19 20 21 22 23 24 25 26 27
000
ASUS43 KEAX 240210
RWREAX

WEATHER ROUNDUP FOR EASTERN KANSAS AND NORTHWEST MISSOURI
NATIONAL WEATHER SERVICE KANSAS CITY/PLEASANT HILL MO
900 PM CDT SAT JUL 23 2016

KSZ040-057-103>105-MOZ028-029-037-043-240300-
...KANSAS CITY METROPOLITAN AREA...

CITY           SKY/WX    TMP DP  RH WIND       PRES   REMARKS
K.C. INTL      CLOUDY    84  75  74 S8        29.85S HX  92
K.C. DOWNTOWN  CLOUDY    90  70  51 S6        29.84R HX  95
LEES SUMMIT    CLOUDY    90  73  57 S8        29.88R HX  98
OLATHE - IXD   CLOUDY    86  74  67 S6        29.87S HX  94
OLATHE - OJC   CLOUDY    83  75  77 S6        29.87S HX  90
LAWRENCE       CLOUDY    83  76  79 SE7       29.84R HX  91

$$

MOZ001>008-011>017-020>025-030>033-038>040-044>046-053-054-240300-
...NORTHERN AND CENTRAL MISSOURI...

CITY           SKY/WX    TMP DP  RH WIND       PRES   REMARKS
ST. JOSEPH     CLOUDY    85  74  69 S8        29.82R HX  92
MOSBY          CLOUDY    86  75  70 S3        29.85S HX  95
WHITEMAN AFB   CLEAR     83  77  80 S6        29.88R HX  92
CLINTON        CLEAR     84  77  79 CALM      29.89R HX  94
SEDALIA        CLEAR     84  77  79 S6        29.91R HX  94
WARSAW         NOT AVBL
CHILLICOTHE      N/A     86  79  79 S3        29.86S HX  99
KIRKSVILLE     CLOUDY    82  77  84 S5        29.89R HX  90

$$

MOZ041-047>049-056>058-063>065-088>090-097-240300-
...EASTERN AND SOUTHERN MISSOURI...

CITY           SKY/WX    TMP DP  RH WIND       PRES   REMARKS
ST. LOUIS INTL PTCLDY    90  74  59 S10       29.93R HX  99
SPIRIT OF STL  PTCLDY    87  76  69 SE5       29.91R HX  97
COLUMBIA       CLEAR     86  79  79 S6        29.91R HX  99
JEFFERSON CITY CLEAR     88  76  67 CALM      29.89R HX  99
ROLLA          CLEAR     85  77  77 SE6       29.93R HX  95
OSAGE BEACH    CLEAR     84  78  82 CALM      29.91S HX  95
SPRINGFIELD    CLEAR     86  72  62 S7        29.94R HX  92
BRANSON        MOCLDY    86  75  70 S5        29.96R HX  95
JOPLIN         CLEAR     89  74  60 SE8       29.92R HX  98
WEST PLAINS    CLOUDY    83  70  64 CALM      29.98S

$$

IAZ060-094-KSZ022-034>040-054-083-096-NEZ052-066-093-240300-
...KANSAS...SOUTHEAST NEBRASKA AND IOWA...

CITY           SKY/WX    TMP DP  RH WIND       PRES   REMARKS
TOPEKA           N/A     87  72  60 S8        29.83R HX  93
MANHATTAN      PTCLDY    90  71  53 S8        29.80S HX  96
EMPORIA        CLOUDY    87  70  56 SE13      29.86R HX  92
CHANUTE        PTCLDY    86  72  62 SE8       29.88R HX  92
WICHITA        CLOUDY    92  68  45 SE16      29.83R HX  96
OMAHA          PTCLDY    87  76  69 S14       29.77R HX  97
LINCOLN        CLOUDY    88  73  61 S9        29.78R HX  95
FALLS CITY     CLOUDY    86  74  67 S10       29.79S HX  94
LAMONI         PTCLDY    83  75  77 S9        29.84S HX  90
DES MOINES     PTCLDY    84  77  79 S7        29.80S HX  94

$$





USA.gov is the U.S. government's official web portal to all federal, state and local government web resources and services.